Weather History for Cap-Skirring, Senegal

Change the Weather History Date:

Friday, April 27, 2012

  Actual Average Record
Temperature  
Mean Temperature 76 °F -  
Max Temperature 85 °F - - ()
Min Temperature 67 °F - - ()
Cooling Degree Days 11    
Growing Degree Days 26 (Base 50)    
Moisture  
Dew Point 66 °F    
Average Humidity 76    
Maximum Humidity 94    
Minimum Humidity 39    
Precipitation  
Precipitation 0.00 in - - ()
Sea Level Pressure  
Sea Level Pressure 29.86 in    
Wind  
Wind Speed 7 mph ()    
Max Wind Speed 14 mph    
Max Gust Speed -    
Visibility 6.1 miles    
Events      
T = Trace of Precipitation, MM = Missing Value Source: Averaged Metar Reports

Daily Weather History Graph

Daily Weather History Graph

Search for Another Location

Airport:

Trip Planner

Search our weather history database for the weather conditions in past years. The results will help you decide how hot, cold, wet, or windy it might be!

Date:

Astronomy

Apr. 27, 2012 Rise Set
Actual Time 6:48 AM GMT 7:20 PM GMT
Civil Twilight 6:26 AM GMT 7:42 PM GMT
Nautical Twilight 6:00 AM GMT 8:08 PM GMT
Astronomical Twilight 5:35 AM GMT 8:34 PM GMT
Moon 11:30 AM GMT (4/27) No Moon Set
Length of Visible Light 13h 16m
Length of Day
12h 32m
Waxing Crescent, 31% of the Moon is Illuminated
Apr 27
Waxing Crescent
Apr 29
First Quarter
May 6
Full
May 12
Last Quarter
May 20
New

Hourly Weather History & Observations

Time (GMT) Temp. Heat Index Dew Point Humidity Pressure Visibility Wind Dir Wind Speed Gust Speed Precip Events Conditions
12:00 AM 69 °F - 66 °F 87% 29.93 in 6 mi NW 6.9 mph - -  
12:00 AM 69.8 °F - 66.2 °F 88% 29.92 in - NW 6.9 mph - N/A   Clear
3:00 AM 68.0 °F - 66.2 °F 94% 29.86 in 6.2 mi NW 6.9 mph - N/A   Scattered Clouds
4:00 AM 68.0 °F - 66.2 °F 94% 29.86 in 6.2 mi NNW 6.9 mph - N/A   Scattered Clouds
5:00 AM 69.8 °F - 66.2 °F 88% 29.86 in 6.2 mi NNW 9.2 mph - N/A   Partly Cloudy
6:00 AM 68 °F - 65 °F 88% 29.86 in 6 mi NNW 6.9 mph - -   Scattered Clouds
6:00 AM 68.0 °F - 66.2 °F 94% 29.86 in 6.2 mi NNW 6.9 mph - N/A   Partly Cloudy
7:00 AM 68.0 °F - 66.2 °F 94% 29.86 in - NNW 6.9 mph - N/A   Clear
8:00 AM 69.8 °F - 66.2 °F 88% 29.86 in 6.2 mi NNW 6.9 mph - N/A   Mostly Cloudy
9:00 AM 71.6 °F - 66.2 °F 83% 29.89 in 6.2 mi NW 6.9 mph - N/A   Mostly Cloudy
10:00 AM 77.0 °F - 66.2 °F 69% 29.89 in - Variable 11.5 mph - N/A   Clear
11:00 AM 80.6 °F 82.3 °F 64.4 °F 58% 29.89 in - North 6.9 mph - N/A   Clear
12:00 PM 84 °F - 63 °F 39% 29.89 in 6 mi NW 4.6 mph - -   Clear
12:00 PM 84.2 °F 85.0 °F 62.6 °F 48% 29.89 in - Variable 4.6 mph - N/A   Clear
3:00 PM 78.8 °F - 66.2 °F 65% 29.83 in - NW 9.2 mph - N/A   Clear
4:00 PM 80.6 °F 82.7 °F 66.2 °F 61% 29.77 in - NW 9.2 mph - N/A   Clear
5:00 PM 80.6 °F 83.2 °F 68.0 °F 65% 29.80 in - West 9.2 mph - N/A   Clear
6:00 PM 77 °F - 66 °F 60% 29.80 in 6 mi WNW 9.2 mph - -   Clear
6:00 PM 77.0 °F - 66.2 °F 69% 29.80 in - WNW 9.2 mph - N/A   Clear
7:00 PM 73.4 °F - 64.4 °F 73% 29.80 in - NW 9.2 mph - N/A   Clear
9:00 PM 69.8 °F - 66.2 °F 88% 29.86 in - NW 11.5 mph - N/A   Clear
11:00 PM 69.8 °F - 66.2 °F 88% 29.89 in 6.2 mi NNW 13.8 mph - N/A   Scattered Clouds